| time (UTC) | temp C | wind direction | speed KPH | gust KPH | rain 1hr cm | rain 24hr cm | rain mn cm | humidity % | barometer mb |
| 20260502213603 | 26 | 54 | 3.2 | 11.3 | 0.00 | 0.00 | 0.00 | 39 | 1017.6 |
| 20260502212703 | 26 | 23 | 3.2 | 12.9 | 0.00 | 0.00 | 0.00 | 41 | 1017.7 |
| 20260502211804 | 26 | 13 | 6.4 | 12.9 | 0.00 | 0.00 | 0.00 | 40 | 1017.9 |
| 20260502210924 | 26 | 347 | 6.4 | 16.1 | 0.00 | 0.00 | 0.00 | 39 | 1017.9 |
| 20260502210003 | 26 | 358 | 4.8 | 12.9 | 0.00 | 0.00 | 0.00 | 40 | 1018.1 |
| 20260502205425 | 26 | 8 | 4.8 | 19.3 | 0.00 | 0.00 | 0.00 | 41 | 1018.2 |
| 20260502204504 | 26 | 4 | 6.4 | 14.5 | 0.00 | 0.00 | 0.00 | 41 | 1018.3 |
| 20260502203603 | 26 | 28 | 4.8 | 12.9 | 0.00 | 0.00 | 0.00 | 40 | 1018.4 |
| 20260502202725 | 26 | 47 | 4.8 | 12.9 | 0.00 | 0.00 | 0.00 | 39 | 1018.5 |
| 20260502201804 | 26 | 10 | 4.8 | 11.3 | 0.00 | 0.00 | 0.00 | 44 | 1018.5 |
| 20260502200903 | 25 | 6 | 6.4 | 12.9 | 0.00 | 0.00 | 0.00 | 41 | 1018.5 |
| 20260502200003 | 25 | 59 | 6.4 | 16.1 | 0.00 | 0.00 | 0.00 | 41 | 1018.7 |
| 20260502195403 | 25 | 37 | 6.4 | 16.1 | 0.00 | 0.00 | 0.00 | 40 | 1018.7 |
| 20260502194503 | 25 | 25 | 6.4 | 17.7 | 0.00 | 0.00 | 0.00 | 40 | 1018.8 |
| 20260502193603 | 25 | 56 | 4.8 | 14.5 | 0.00 | 0.00 | 0.00 | 41 | 1018.9 |
| 20260502192704 | 25 | 15 | 6.4 | 17.7 | 0.00 | 0.00 | 0.00 | 42 | 1019.0 |
| 20260502191803 | 25 | 334 | 8.0 | 17.7 | 0.00 | 0.00 | 0.00 | 42 | 1019.0 |
| 20260502190924 | 25 | 17 | 8.0 | 19.3 | 0.00 | 0.00 | 0.00 | 43 | 1019.1 |
| 20260502190024 | 25 | 40 | 4.8 | 17.7 | 0.00 | 0.00 | 0.00 | 45 | 1019.2 |
| 20260502185403 | 25 | 45 | 4.8 | 17.7 | 0.00 | 0.00 | 0.00 | 44 | 1019.3 |
| 20260502184524 | 24 | 349 | 8.0 | 17.7 | 0.00 | 0.00 | 0.00 | 44 | 1019.4 |
| 20260502183604 | 24 | 332 | 8.0 | 16.1 | 0.00 | 0.00 | 0.00 | 44 | 1019.6 |
| 20260502182703 | 24 | 14 | 4.8 | 17.7 | 0.00 | 0.00 | 0.00 | 44 | 1019.7 |
| 20260502181804 | 23 | 330 | 4.8 | 12.9 | 0.00 | 0.00 | 0.00 | 45 | 1019.8 |
| 20260502180903 | 24 | 1 | 3.2 | 11.3 | 0.00 | 0.00 | 0.00 | 44 | 1020.0 |
| 20260502163603 | 20 | 310 | 4.8 | 11.3 | 0.00 | 0.00 | 0.00 | 58 | 1020.9 |
| 20260502162703 | 20 | 319 | 6.4 | 12.9 | 0.00 | 0.00 | 0.00 | 59 | 1020.8 |
| 20260502161825 | 20 | 326 | 6.4 | 12.9 | 0.00 | 0.00 | 0.00 | 62 | 1020.9 |
| 20260502160903 | 20 | 340 | 4.8 | 12.9 | 0.00 | 0.00 | 0.00 | 64 | 1020.8 |
| 20260502151824 | 17 | 331 | 8.0 | 14.5 | 0.00 | 0.00 | 0.00 | 74 | 1020.7 |
| 20260502150925 | 17 | 325 | 8.0 | 16.1 | 0.00 | 0.00 | 0.00 | 76 | 1020.7 |
| 20260502123624 | 10 | 307 | 3.2 | 4.8 | 0.00 | 0.08 | 0.00 | 89 | 1019.6 |
| 20260502122704 | 10 | 306 | 1.6 | 4.8 | 0.00 | 0.08 | 0.00 | 89 | 1019.5 |
| 20260502121824 | 10 | 300 | 0.0 | 4.8 | 0.00 | 0.08 | 0.00 | 89 | 1019.3 |
| 20260502120924 | 9 | 306 | 1.6 | 4.8 | 0.00 | 0.08 | 0.00 | 89 | 1019.1 |
| 20260502115403 | 9 | 315 | 1.6 | 6.4 | 0.00 | 0.08 | 0.00 | 89 | 1018.9 |
| 20260502114503 | 9 | 319 | 0.0 | 3.2 | 0.00 | 0.08 | 0.00 | 89 | 1018.6 |
| 20260502113603 | 8 | 319 | 0.0 | 3.2 | 0.00 | 0.08 | 0.00 | 89 | 1018.5 |
| 20260502112725 | 8 | 0 | 0.0 | 0.0 | 0.00 | 0.08 | 0.00 | 89 | 1018.3 |
| 20260502111803 | 9 | 0 | 0.0 | 0.0 | 0.00 | 0.08 | 0.00 | 88 | 1018.2 |
| 20260502110903 | 9 | 0 | 0.0 | 0.0 | 0.00 | 0.08 | 0.00 | 88 | 1018.1 |
| 20260502110004 | 9 | 0 | 0.0 | 0.0 | 0.00 | 0.08 | 0.00 | 88 | 1017.9 |
| 20260502105403 | 9 | 0 | 0.0 | 0.0 | 0.00 | 0.08 | 0.00 | 88 | 1017.9 |
| 20260502104504 | 9 | 0 | 0.0 | 0.0 | 0.00 | 0.08 | 0.00 | 88 | 1017.8 |
| 20260502103624 | 9 | 0 | 0.0 | 0.0 | 0.00 | 0.08 | 0.00 | 88 | 1017.7 |
| 20260502102703 | 9 | 0 | 0.0 | 0.0 | 0.00 | 0.08 | 0.00 | 88 | 1017.6 |
| 20260502101804 | 9 | 0 | 0.0 | 0.0 | 0.00 | 0.08 | 0.00 | 88 | 1017.5 |
| 20260502100903 | 10 | 0 | 0.0 | 0.0 | 0.00 | 0.08 | 0.00 | 88 | 1017.5 |
| 20260502090924 | 10 | 0 | 0.0 | 0.0 | 0.00 | 0.08 | 0.00 | 88 | 1017.3 |
| 20260502070903 | 10 | 0 | 0.0 | 0.0 | 0.00 | 0.08 | 0.00 | 85 | 1017.5 |
| 20260502070004 | 10 | 0 | 0.0 | 0.0 | 0.00 | 0.08 | 0.00 | 85 | 1017.4 |
| 20260502065403 | 10 | 0 | 0.0 | 0.0 | 0.00 | 0.08 | 0.00 | 85 | 1017.3 |
| 20260502064524 | 11 | 0 | 0.0 | 0.0 | 0.00 | 0.08 | 0.00 | 84 | 1017.3 |
| 20260502063624 | 11 | 0 | 0.0 | 0.0 | 0.00 | 0.08 | 0.00 | 84 | 1017.5 |
| 20260502062703 | 11 | 0 | 0.0 | 0.0 | 0.00 | 0.08 | 0.00 | 84 | 1017.6 |
| 20260502061803 | 11 | 0 | 0.0 | 0.0 | 0.00 | 0.08 | 0.00 | 84 | 1017.5 |
| 20260502060903 | 11 | 0 | 0.0 | 0.0 | 0.00 | 0.08 | 0.00 | 84 | 1017.6 |
| 20260502060003 | 11 | 0 | 0.0 | 0.0 | 0.00 | 0.08 | 0.00 | 84 | 1017.7 |
| 20260502055403 | 11 | 0 | 0.0 | 0.0 | 0.00 | 0.08 | 0.00 | 83 | 1017.7 |
| 20260502054503 | 11 | 0 | 0.0 | 0.0 | 0.00 | 0.08 | 0.00 | 83 | 1017.8 |
| 20260502053603 | 11 | 0 | 0.0 | 0.0 | 0.00 | 0.08 | 0.00 | 83 | 1017.7 |
| 20260502052703 | 11 | 0 | 0.0 | 0.0 | 0.00 | 0.08 | 0.00 | 83 | 1017.6 |
| 20260502051803 | 12 | 0 | 0.0 | 0.0 | 0.00 | 0.08 | 0.00 | 82 | 1017.4 |
| 20260502050924 | 12 | 0 | 0.0 | 0.0 | 0.00 | 0.08 | 0.00 | 82 | 1017.3 |
| 20260502050004 | 12 | 0 | 0.0 | 0.0 | 0.00 | 0.08 | 0.00 | 82 | 1017.4 |
| 20260502044504 | 12 | 0 | 0.0 | 0.0 | 0.00 | 0.08 | 0.08 | 82 | 1017.3 |
| 20260502043603 | 12 | 0 | 0.0 | 0.0 | 0.00 | 0.08 | 0.08 | 82 | 1017.4 |
| 20260502042703 | 12 | 0 | 0.0 | 0.0 | 0.00 | 0.08 | 0.08 | 81 | 1017.3 |
| 20260502041803 | 12 | 0 | 0.0 | 0.0 | 0.00 | 0.08 | 0.08 | 81 | 1017.3 |
| 20260502040924 | 13 | 0 | 0.0 | 0.0 | 0.00 | 0.08 | 0.08 | 81 | 1017.3 |
| 20260502040003 | 13 | 0 | 0.0 | 0.0 | 0.00 | 0.08 | 0.08 | 80 | 1017.3 |
| 20260502035403 | 13 | 0 | 0.0 | 0.0 | 0.00 | 0.08 | 0.08 | 80 | 1017.3 |
| 20260502034503 | 13 | 0 | 0.0 | 0.0 | 0.00 | 0.08 | 0.08 | 79 | 1017.2 |
| 20260502033624 | 13 | 0 | 0.0 | 0.0 | 0.00 | 0.08 | 0.08 | 79 | 1017.0 |
| 20260502032703 | 13 | 0 | 0.0 | 0.0 | 0.00 | 0.08 | 0.08 | 79 | 1017.1 |
| 20260502031824 | 13 | 0 | 0.0 | 0.0 | 0.00 | 0.08 | 0.08 | 79 | 1017.1 |
| 20260502030904 | 13 | 0 | 0.0 | 0.0 | 0.00 | 0.08 | 0.08 | 78 | 1017.1 |
| 20260502030003 | 14 | 0 | 0.0 | 0.0 | 0.00 | 0.08 | 0.08 | 77 | 1016.9 |
| 20260502025403 | 14 | 0 | 0.0 | 0.0 | 0.00 | 0.08 | 0.08 | 76 | 1016.8 |
| 20260502024503 | 14 | 0 | 0.0 | 0.0 | 0.00 | 0.08 | 0.08 | 76 | 1016.6 |
| 20260502023603 | 14 | 0 | 0.0 | 0.0 | 0.00 | 0.08 | 0.08 | 76 | 1016.5 |
| 20260502022703 | 14 | 0 | 0.0 | 0.0 | 0.00 | 0.08 | 0.08 | 76 | 1016.4 |
| 20260502021803 | 14 | 0 | 0.0 | 0.0 | 0.00 | 0.08 | 0.08 | 75 | 1016.3 |
| 20260502020903 | 14 | 0 | 0.0 | 0.0 | 0.00 | 0.08 | 0.08 | 76 | 1016.2 |
| 20260502020004 | 14 | 0 | 0.0 | 0.0 | 0.00 | 0.08 | 0.08 | 76 | 1016.1 |
| 20260502015403 | 14 | 0 | 0.0 | 0.0 | 0.00 | 0.08 | 0.08 | 75 | 1015.8 |
| 20260502014503 | 14 | 68 | 0.0 | 1.6 | 0.00 | 0.08 | 0.08 | 75 | 1015.8 |
| 20260502013624 | 14 | 61 | 1.6 | 4.8 | 0.00 | 0.08 | 0.08 | 75 | 1015.4 |
| 20260502012703 | 15 | 63 | 3.2 | 8.0 | 0.00 | 0.08 | 0.08 | 73 | 1015.3 |
| 20260502011803 | 15 | 53 | 3.2 | 6.4 | 0.00 | 0.08 | 0.08 | 73 | 1015.3 |
| 20260502010903 | 15 | 50 | 3.2 | 8.0 | 0.00 | 0.08 | 0.08 | 72 | 1015.1 |
| 20260502010004 | 15 | 55 | 4.8 | 12.9 | 0.00 | 0.08 | 0.08 | 71 | 1015.0 |
| 20260502005404 | 15 | 52 | 4.8 | 12.9 | 0.00 | 0.08 | 0.08 | 71 | 1014.8 |
| 20260502004504 | 15 | 57 | 4.8 | 14.5 | 0.00 | 0.08 | 0.08 | 71 | 1014.6 |
| 20260502003625 | 15 | 60 | 4.8 | 16.1 | 0.00 | 0.08 | 0.08 | 70 | 1014.4 |
| 20260502002704 | 15 | 60 | 8.0 | 19.3 | 0.00 | 0.08 | 0.08 | 69 | 1014.2 |
| 20260502001804 | 15 | 55 | 6.4 | 17.7 | 0.00 | 0.08 | 0.08 | 70 | 1014.2 |
| 20260502000904 | 16 | 56 | 6.4 | 17.7 | 0.00 | 0.08 | 0.08 | 70 | 1014.2 |
| 20260502000025 | 16 | 57 | 8.0 | 17.7 | 0.00 | 0.08 | 0.08 | 70 | 1013.9 |
| 20260501235404 | 16 | 58 | 6.4 | 14.5 | 0.00 | 0.08 | 0.08 | 70 | 1013.9 |
| 20260501234504 | 16 | 58 | 6.4 | 17.7 | 0.00 | 0.08 | 0.08 | 70 | 1013.7 |
| 20260501233605 | 16 | 60 | 9.7 | 19.3 | 0.00 | 0.08 | 0.08 | 69 | 1013.7 |
| 20260501232726 | 16 | 57 | 9.7 | 24.1 | 0.00 | 0.08 | 0.08 | 68 | 1013.8 |
| 20260501231804 | 16 | 58 | 8.0 | 19.3 | 0.00 | 0.08 | 0.08 | 68 | 1013.9 |
| 20260501230925 | 16 | 59 | 8.0 | 17.7 | 0.00 | 0.08 | 0.08 | 67 | 1013.7 |
| 20260501230004 | 16 | 55 | 6.4 | 17.7 | 0.00 | 0.08 | 0.08 | 67 | 1013.5 |
| 20260501225404 | 16 | 55 | 6.4 | 14.5 | 0.00 | 0.08 | 0.08 | 67 | 1013.6 |
| 20260501224505 | 16 | 51 | 6.4 | 14.5 | 0.00 | 0.08 | 0.08 | 67 | 1013.4 |
| 20260501223604 | 16 | 52 | 8.0 | 17.7 | 0.00 | 0.13 | 0.08 | 66 | 1013.4 |
| 20260501222705 | 16 | 48 | 9.7 | 19.3 | 0.00 | 0.13 | 0.08 | 65 | 1013.4 |
| 20260501221804 | 16 | 36 | 8.0 | 19.3 | 0.00 | 0.13 | 0.08 | 65 | 1013.1 |
| 20260501220905 | 16 | 30 | 9.7 | 19.3 | 0.00 | 0.13 | 0.08 | 65 | 1013.1 |
| 20260501220004 | 16 | 32 | 11.3 | 24.1 | 0.00 | 0.13 | 0.08 | 65 | 1013.0 |
| 20260501215404 | 17 | 48 | 9.7 | 20.9 | 0.00 | 0.13 | 0.08 | 65 | 1013.1 |
| 20260501214504 | 17 | 55 | 8.0 | 24.1 | 0.00 | 0.13 | 0.08 | 68 | 1013.3 |